Regional Weather Roundup
Issued by NWS

Home | Current Version | Previous Version | Graphics & Text | Print | Product List | Glossary On
Versions: 1 2 3 4 5 6 7 8 9 10 11 12 13 14 15 16 17 18 19 20 21 22 23 24 25 26 27 28 29 30 31 32 33 34 35 36 37 38 39 40 41 42 43 44 45 46 47 48 49 50
000
ASUS43 KDMX 241406
RWRIA

WEATHER ROUNDUP FOR IOWA
NATIONAL WEATHER SERVICE DES MOINES IA
800 AM CST FRI NOV 24 2017

NOTE: "FAIR" INDICATES FEW OR NO CLOUDS BELOW 12,000 FEET WITH NO
SIGNIFICANT WEATHER AND/OR OBSTRUCTIONS TO VISIBILITY.

* - THESE STATIONS ARE NOT NWS STATIONS...THUS NOT UNDER NWS
QUALITY CONTROL.  THEY ALSO DO NOT REPORT WEATHER SUCH
AS PRECIPITATION OR FOG.

IAZ001>003-012>014-020>022-031>034-043>046-241500-
   NORTHWEST IOWA

CITY           SKY/WX    TMP DP  RH WIND       PRES   REMARKS
CARROLL *      CLEAR     48  39  71 SW21      29.47F
CHEROKEE *     CLEAR     37  37 100 S3        29.45S
DENISON *      CLEAR     46  39  76 SW8       29.50F
LE MARS *      CLEAR     37  36  93 S6        29.45S WCI  33
ORANGE CITY *  CLEAR     41  39  93 SW12      29.43F
SHELDON *      CLEAR     39  36  87 S6        29.42F WCI  35
SIOUX CITY     CLEAR     34  33  96 SE7       29.46F WCI  28
SPENCER        CLEAR     40  36  86 S8        29.42F WCI  34
STORM LAKE *   CLEAR     46  39  76 SW16      29.45S
$$

IAZ055>058-069>071-079>083-090>094-241500-
   SOUTHWEST IOWA

CITY           SKY/WX    TMP DP  RH WIND       PRES   REMARKS
ATLANTIC *     CLEAR     46  39  76 S14       29.53F
AUDUBON *      CLEAR     48  39  71 S8        29.52S
CLARINDA *     CLEAR     48  37  66 S6          N/A
COUNCIL BLFS * CLEAR     50  41  71 SW15      29.52F
CRESTON *      CLEAR     46  37  71 S16       29.57F
HARLAN  *      CLEAR     45  39  81 S9        29.54F
LAMONI         CLEAR     48  35  60 S15       29.60F
RED OAK *      CLEAR     46  39  76 S9        29.56S
SHENANDOAH *   CLEAR     50  39  66 SW12      29.57F
$$

IAZ047>049-059>061-072>074-084-241500-
   CENTRAL IOWA

CITY           SKY/WX    TMP DP  RH WIND       PRES   REMARKS
AMES           CLEAR     46  39  76 S5        29.51F
ANKENY *       CLEAR     52  37  58 S14       29.54S
BOONE *        CLEAR     52  37  58 SW15G22   29.49F
CHARITON *     CLEAR     50  36  57 S16G23    29.58F
DES MOINES     PTCLDY    51  36  56 S13       29.54F
GRINNELL*      CLEAR     48  36  64 S14       29.56F
KNOXVILLE *    CLEAR     52  34  50 S18       29.55F
MARSHALLTOWN   CLEAR     48  37  65 S12       29.52F
NEWTON *       CLEAR     52  37  58 S16       29.54F
PELLA *        CLEAR     52  35  53 S10G17    29.58F
PERRY *          N/A     45  35  69 S9        29.51S
$$

IAZ004>006-015-016-023>025-035-036-241500-
   NORTH CENTRAL IOWA

CITY           SKY/WX    TMP DP  RH WIND       PRES   REMARKS
ALGONA *       CLEAR     41  39  93 S10       29.45F
CLARION *      CLEAR     41  39  93 S14       29.47F
ESTHERVILLE    CLEAR     35  34  96 S10       29.41F WCI  27
FORT DODGE *   CLEAR     45  37  73 S10       29.47F
MASON CITY     CLEAR     39  35  86 S5        29.48F
FOREST CITY *    N/A     41  36  81 S6        29.46F
WEBSTER CITY * CLEAR     45  37  76 S12       29.47F
IOWA FALLS *     N/A     44  37  74 S9        29.51F
$$

IAZ007>011-017>019-026>030-037>042-050>054-066-241500-
   NORTHEAST IOWA

CITY           SKY/WX    TMP DP  RH WIND       PRES   REMARKS
CEDAR RAPIDS   CLEAR     46  35  65 S15       29.58F
CHARLES CITY * CLEAR     41  37  87 S13       29.50F
CLINTON *      CLEAR     41  34  76 S10       29.65F
DECORAH *      CLEAR     46  36  66 S9G17     29.50F
DUBUQUE        CLEAR     41  33  73 S15       29.59F
MONTICELLO *   CLEAR     43  34  70 S12       29.59F
OELWEIN *      CLEAR     43  37  81 S10       29.55F
WATERLOO       CLEAR     45  35  68 S9        29.52F
$$

IAZ064-065-067-068-078-241500-
   EAST CENTRAL IOWA

CITY           SKY/WX    TMP DP  RH WIND       PRES   REMARKS
DAVENPORT      CLEAR     45  34  65 S16       29.67F
IOWA CITY      CLEAR     47  35  63 S12       29.64F
MT. PLEASANT * CLEAR     43  33  66 S14       29.67F
MUSCATINE *    CLEAR     32  28  86 CALM      29.67F
QUAD CITIES    CLEAR     45  32  60 S8        29.66F
$$

IAZ062-063-075>077-085>089-095>099-241500-
   SOUTHEAST IOWA

CITY           SKY/WX    TMP DP  RH WIND       PRES   REMARKS
BURLINGTON     CLOUDY    43  35  73 S12       29.69F
FAIRFIELD *    CLEAR     48  34  57 S15G22    29.63F
FORT MADISON * CLEAR     46  36  66 S13       29.69F
KEOKUK *       PTCLDY    45  34  65 S14       29.69F
OSKALOOSA *      N/A     47  37  67 S10       29.60F
OTTUMWA        CLEAR     49  35  58 S14       29.61F
WASHINGTON *   CLEAR     46  36  66 S14       29.64F
$$

ABBREVIATIONS USED IN REMARKS
   TC - TEMPERATURES IN CELSIUS
  WCI - WIND CHILL INDEX
   HX - HEAT INDEX
  VSB - VISIBILITY
$$




USA.gov is the U.S. government's official web portal to all federal, state and local government web resources and services.